FLOCK 2E-4

Last updated on Mon Mar 12 2018 00:16:59 GMT+0000 (Coordinated Universal Time)

1 41487U 98067JH 18070.31675234 .14212785 12501-4 82846-3 0 9995 2 41487 51.6109 75.1635 0003380 16.6517 345.1183 16.41744848103922

Satellite not in orbit